Regional Weather Roundup
Issued by NWS Columbia, SC

Home | Current Version | Previous Version | Text Only | Print | Product List | Glossary On
Versions: 1 2 3 4 5 6 7 8 9 10 11 12 13 14 15 16 17 18 19 20 21 22 23 24 25 26 27 28 29 30 31 32 33 34 35 36 37 38 39 40 41 42 43 44 45 46 47 48 49 50
000
ASUS42 KCAE 222110
RWRCAE
REGIONAL WEATHER ROUNDUP
NATIONAL WEATHER SERVICE COLUMBIA SC
500 PM EDT MON SEP 22 2014

NOTE: "FAIR" INDICATES FEW OR NO CLOUDS BELOW 12,000 FEET WITH NO
SIGNIFICANT WEATHER AND/OR OBSTRUCTIONS TO VISIBILITY.

NOT ALL STATIONS ARE QUALITY CONTROLLED BY THE NATIONAL
WEATHER SERVICE. USE DATA WITH CAUTION...ESPECIALLY
DEWPOINT OBSERVATIONS.

SCZ001>056-GAZ040-063>065-077-222200-
...UPSTATE SOUTH CAROLINA...

CITY           SKY/WX    TMP DP  RH WIND       PRES   REMARKS
ANDERSON       PTSUNNY   78  58  49 SE8       30.04S
LIBERTY        FAIR      80  56  44 CALM      30.03S
SPARTANBURG    FAIR      79  54  41 E6        30.04S
CLEMSON        SUNNY     80  51  36 E3        30.04S
GREENVILLE     MOSUNNY   79  48  33 VRB3      30.05S
GREENWOOD      PTSUNNY   72  58  61 SE6       30.07R
GREER          MOSUNNY   76  55  48 VRB5      30.03F
ROCK HILL      CLOUDY    73  56  54 E3        30.06S
CHESTER        FAIR      73  54  49 SE5       30.10S
LAURENS        MOCLDY    72  50  46 SE5       30.06S


...CENTRAL SOUTH CAROLINA...

CITY           SKY/WX    TMP DP  RH WIND       PRES   REMARKS
COLUMBIA APT   LGT RAIN  71  60  68 SE5       30.03R
COLUMBIA OWENS CLOUDY    71  59  65 CALM      30.04S
DARLINGTON     CLOUDY    70  61  73 NW8       30.04S
FLORENCE       CLOUDY    76  58  53 E3        30.01F
MCENTIRE ANGB  CLOUDY    68  63  84 NE2       30.03F
ORANGEBURG     RAIN      65  60  84 VRB3      30.03S
SUMTER SHAW    DRIZZLE   70  63  78 N5        30.00F
NEWBERRY       CLOUDY    70  55  60 E3        30.09R
AIKEN          FAIR      70  63  78 CALM      30.08S
BARNWELL       FAIR      66  64  94 E5        30.04S
CAMDEN         FAIR      72  61  68 CALM      30.03F
LANCASTER      MOCLDY    68  61  77 CALM      30.05S
WINNSBORO      FAIR      66  61  82 NE3       30.04R


...EASTERN AND COASTAL SOUTH CAROLINA...

CITY           SKY/WX    TMP DP  RH WIND       PRES   REMARKS
MYRTLE BEACH   PTSUNNY   75  61  60 N13       30.00S
N MYRTLE BCH   CLOUDY    73  62  68 N7        30.00S
CONWAY         LGT RAIN  72  66  83 CALM      30.01S
HARTSVILLE     MOCLDY    72  63  73 NE3       30.03F
FLORENCE       CLOUDY    76  58  53 E3        30.01F
DARLINGTON     CLOUDY    70  61  73 NW8       30.04S
CHARLESTON APT PTSUNNY   75  65  70 NW20G31   30.01R
MOUNT PLEASANT FAIR      82  70  65 S7        29.98R
WALTERBORO     CLOUDY    68 N/A N/A NW7       30.03R
BEAUFORT       TSTM      74  65  73 SW14G20   30.02R


...EASTERN GEORGIA...

CITY           SKY/WX    TMP DP  RH WIND       PRES   REMARKS
AUGUSTA BUSH F CLOUDY    70  65  84 SE3       30.04R
AUGUSTA DANIEL CLOUDY    69  62  78 N6        30.06R
THOMSON        CLOUDY    69  69  99 CALM      30.10R
WASHINGTON     FAIR      72  63  73 E6        30.06R
CLAXTON        FAIR      79  68  69 N6        30.00R
SYLVANIA       MOCLDY    76  74  93 NE7       30.02R
STATESBORO     PTSUNNY   73  67  80 N12       30.00S
SAVANNAH       PTSUNNY   78  64  61 NW22G33   29.98R THUNDER


...SOUTHERN NORTH CAROLINA...

CITY           SKY/WX    TMP DP  RH WIND       PRES   REMARKS
CHARLOTTE      CLOUDY    73  54  51 N7        30.06S
MONROE         CLOUDY    72  54  53 NE6       30.05S
WADESBORO      CLOUDY    72  53  51 N6        30.05S
ROCKINGHAM     CLOUDY    72  56  58 N3        30.04R
RUTHERFORDTON  MOSUNNY   77  50  38 NE6       30.06S
ASHEVILLE      SUNNY     71  47  42 N16G25    30.11S

$$


USA.gov is the U.S. government's official web portal to all federal, state and local government web resources and services.